sat.trackr.live / text

‹ back to catalog

STARLINK-6069

NORAD 56804 · 2023-078AP

PAYLOAD ACTIVE UNKNOWN

§ Identity

Operator
Country
US
Launch date
2023-05-31
Launch site
AFWTR
Launch vehicle
Mass (kg)
RCS (m²)

Purposes: comms

External: N2YO · Heavens-Above · Gunter

§ Orbital elements

Epoch: 2026-09-20T22:00:03.000096Z

Period
95.74 min
Inclination
70.0004°
Eccentricity
0.0004852
Mean motion
15.04062241 rev/d
Perigee alt
551.0 km
Apogee alt
557.7 km
Semi-major
6,932.5 km
B*
2.0494e-4
RAAN
192.1005°
Arg perigee
250.5968°
Mean anomaly
324.3575°
Rev number
566

§ Raw data

STARLINK-60691 56804U 23078AP  26263.91670139  .00002745  00000+0  20494-3 0  99972 56804  70.0004 192.1005 0004852 250.5968 324.3575 15.04062241  5669

JSON: /api/v1/satellites/56804 · /tle

For live sub-satellite position, see the globe view (requires WebGL).

§ Visibility from observer

Set your observer location to see the next 7 days of passes ≥ 10°. The values pass through the URL so the page stays shareable.

No JS? Fill the form by hand. The geolocation button needs JavaScript.